[[{"header":{"parameterUnit":"m.s-1","parameterCategory":1,"la1":30.2991,"la2":30.254,"lo1":-89.0895,"lo2":-89.0444,"dy":0.0017,"dx":0.0017,"nx":28,"ny":28,"refTime":"2024-07-18T21:00:00:Z","depth":0,"parameterNumber":2,"parameterNumberName":"U-component_of_WINDS"},"data":[0,0,0,0,0,0,0,0,0,0,0,0,0,0,0,0,0,0,0,0,0,0,0,0,0,0,0,0,0,0,0,0,0,0,0,0,0,0,0,0,0,0,0,0,0,0,0,0,0,0,0,0,0,0,0,0,0,0,-0.5132,-0.5132,0,-0.5126,-0.5126,-0.5126,-0.5113,-0.5113,-0.5112,-0.5112,-0.5105,-0.5105,-0.5105,0,0,0,0,0,0,0,0,0,0,0,0,0,-0.5132,-0.5132,-0.5132,-0.5132,-0.5132,-0.5126,-0.5126,-0.5126,-0.5113,-0.5113,-0.5112,-0.5112,-0.5105,-0.5105,-0.5105,0,0,0,0,0,0,0,0,0,0,0,0,0,-0.5129,-0.5132,-0.5133,-0.5125,-0.5125,-0.5126,-0.5126,-0.5126,-0.5113,-0.5113,-0.5112,-0.5112,-0.5105,-0.5105,-0.5105,-0.5113,0,0,-0.5105,-0.5105,0,0,0,0,0,0,0,0,-0.513,-0.5129,-0.5126,-0.5126,-0.5125,-0.512,-0.5123,-0.5121,-0.5113,-0.5117,-0.5112,-0.5112,-0.511,-0.511,-0.5109,-0.5113,-0.5112,-0.5105,-0.5105,-0.5105,-0.5105,0,0,0,0,0,0,0,-0.513,-0.513,-0.513,-0.5126,-0.5125,-0.5122,-0.5121,-0.5123,-0.5116,-0.5117,-0.5116,-0.5115,-0.511,-0.5109,-0.5109,-0.5112,-0.5105,-0.5105,-0.5105,-0.5105,-0.5119,-0.5119,0,0,0,0,0,0,-0.5131,-0.513,-0.513,-0.513,-0.5126,-0.5122,-0.5121,-0.5122,-0.5116,-0.5115,-0.5116,-0.5115,-0.5109,-0.5109,-0.5109,-0.5116,-0.5105,-0.5105,-0.5105,-0.5118,-0.5119,-0.5119,0,0,0,0,0,0,-0.5131,-0.5131,-0.513,-0.5129,-0.5129,-0.5122,-0.5123,-0.5122,-0.5122,-0.5115,-0.5114,-0.5117,-0.5109,-0.5109,-0.5111,-0.5116,-0.5105,-0.5105,-0.5118,-0.5119,-0.5119,-0.5132,0,0,0,0,0,0,-0.5131,-0.5131,-0.5135,-0.513,-0.5129,-0.5134,-0.5124,-0.5122,-0.5122,-0.5121,-0.5116,-0.5114,-0.5109,-0.5111,-0.5111,-0.5116,-0.5106,-0.5118,-0.5118,-0.5119,-0.5131,-0.5133,-0.5134,0,0,0,0,0,-0.5131,-0.5139,-0.5135,-0.5135,-0.5134,-0.5134,-0.5134,-0.5127,-0.5122,-0.5125,-0.512,-0.5115,-0.5115,-0.5112,-0.5112,-0.5116,-0.5117,-0.5118,-0.5119,-0.513,-0.5132,-0.5134,0,0,0,0,0,0,-0.5146,-0.5139,-0.5134,-0.5141,-0.5138,-0.5132,-0.5136,-0.513,-0.5129,-0.5128,-0.512,-0.5119,-0.5122,-0.5119,-0.5116,-0.5122,-0.5115,-0.5116,-0.5124,-0.5126,-0.5127,-0.5128,-0.5106,0,0,0,0,0,-0.515,-0.5152,-0.5145,-0.5151,-0.515,-0.5143,-0.5143,-0.5138,-0.5135,-0.5134,-0.513,-0.5127,-0.5126,-0.5126,-0.5125,-0.513,-0.5128,-0.5133,-0.5134,-0.5136,-0.5137,-0.5137,-0.5139,-0.5121,-0.5121,-0.5121,0,0,-0.5158,-0.5154,-0.5156,-0.5154,-0.5151,-0.5152,-0.5142,-0.5144,-0.5145,-0.5134,-0.5136,-0.5133,-0.5128,-0.5132,-0.5134,-0.513,-0.5141,-0.5137,-0.5138,-0.5138,-0.5138,-0.514,-0.5141,-0.5122,-0.5122,-0.5122,0,0,-0.5174,-0.5172,-0.5176,-0.5173,-0.5169,-0.5164,-0.5165,-0.5159,-0.5156,-0.5158,-0.5149,-0.5149,-0.5149,-0.5145,-0.5144,-0.5155,-0.5149,-0.5155,-0.5163,-0.5164,-0.5166,-0.5167,-0.517,-0.5171,-0.5156,-0.5156,-0.5156,0,-0.5185,-0.5187,-0.5179,-0.5181,-0.5179,-0.5169,-0.5173,-0.517,-0.5166,-0.5165,-0.5161,-0.5158,-0.5155,-0.5157,-0.5159,-0.5158,-0.5158,-0.5156,-0.5166,-0.5167,-0.5168,-0.5171,-0.5172,-0.5156,-0.5156,-0.5156,-0.5156,0,-0.5199,-0.52,-0.5204,-0.52,-0.5199,-0.5202,-0.5193,-0.5193,-0.5187,-0.5182,-0.5183,-0.5178,-0.5175,-0.5175,-0.517,-0.5175,-0.5173,-0.5168,-0.5161,-0.5171,-0.5173,-0.5174,-0.5157,-0.5157,-0.5157,-0.5157,0,0,-0.5226,-0.5215,-0.5217,-0.5214,-0.5207,-0.5208,-0.5209,-0.5206,-0.5205,-0.5202,-0.5202,-0.52,-0.5194,-0.5192,-0.5186,-0.5187,-0.5195,-0.5181,-0.5181,-0.5183,-0.5199,-0.5203,-0.5204,-0.519,-0.519,-0.5191,-0.5199,0,-0.524,-0.5242,-0.5234,-0.5238,-0.5238,-0.5227,-0.5228,-0.5223,-0.5218,-0.5216,-0.521,-0.5209,-0.5202,-0.52,-0.52,-0.5194,-0.5198,-0.5193,-0.5189,-0.5189,-0.5191,-0.5206,-0.5211,-0.5219,-0.52,-0.52,-0.52,0,-0.5257,-0.5254,-0.5258,-0.5249,-0.5248,-0.5249,-0.5245,-0.5244,-0.5237,-0.5233,-0.523,-0.5222,-0.5222,-0.5214,-0.5212,-0.5209,-0.5207,-0.5203,-0.5204,-0.5203,-0.5196,-0.5205,-0.5221,-0.5222,-0.5202,-0.5202,-0.5201,0,-0.5275,-0.5271,-0.5273,-0.527,-0.5261,-0.5261,-0.5257,-0.525,-0.5248,-0.5244,-0.5242,-0.5237,-0.5235,-0.5231,-0.5222,-0.5218,-0.5221,-0.5213,-0.5216,-0.5217,-0.5218,-0.5218,-0.5234,-0.5217,-0.5217,-0.5217,-0.5217,0,-0.5291,-0.5294,-0.528,-0.5281,-0.5283,-0.5273,-0.5275,-0.5269,-0.5263,-0.5262,-0.5252,-0.525,-0.5239,-0.5236,-0.5229,-0.5227,-0.5226,-0.5222,-0.522,-0.5223,-0.5224,-0.5222,-0.5221,-0.5217,-0.5217,-0.5217,-0.5217,0,-0.5312,-0.5303,-0.5303,-0.5293,-0.5291,-0.5292,-0.5283,-0.5283,-0.5276,-0.5274,-0.5273,-0.5263,-0.5258,-0.5249,-0.5242,-0.5237,-0.5238,-0.5234,-0.524,-0.5238,-0.5242,-0.5242,-0.5257,-0.5258,-0.5241,-0.5241,-0.5241,0,-0.5323,-0.5324,-0.5314,-0.5312,-0.5308,-0.5306,-0.5303,-0.5292,-0.529,-0.5282,-0.5282,-0.5277,-0.5272,-0.5266,-0.5257,-0.5251,-0.5247,-0.5253,-0.5247,-0.5249,-0.5246,-0.5246,-0.5246,-0.5255,-0.5255,-0.5255,-0.5255,0,-0.5343,-0.5338,-0.5335,-0.5329,-0.5326,-0.5322,-0.5316,-0.5315,-0.5303,-0.53,-0.5296,-0.5292,-0.5284,-0.5279,-0.5271,-0.5266,-0.5258,-0.5257,-0.5257,-0.526,-0.5263,-0.5261,-0.5243,-0.5257,-0.5257,-0.5257,-0.5257,-0.5257,-0.5359,-0.5359,-0.5351,-0.5347,-0.5342,-0.5336,-0.5335,-0.5327,-0.5323,-0.5316,-0.531,-0.5305,-0.5297,-0.5286,-0.5281,-0.5276,-0.5273,-0.5273,-0.5274,-0.5274,-0.5275,-0.5264,-0.5275,-0.5275,-0.5275,-0.5275,-0.5275,0,-0.5378,-0.5372,-0.5368,-0.536,-0.5357,-0.5349,-0.5342,-0.5339,-0.5336,-0.5328,-0.5324,-0.5317,-0.5311,-0.5301,-0.5294,-0.5292,-0.5288,-0.5291,-0.5291,-0.5289,-0.5279,-0.5279,-0.5294,-0.5294,-0.5294,-0.5294,-0.5294,-0.5294,-0.5387,-0.5386,-0.538,-0.5376,-0.5369,-0.5365,-0.5362,-0.5356,-0.535,-0.5343,-0.5338,-0.5331,-0.5322,-0.5314,-0.5308,-0.5305,-0.5302,-0.5306,-0.5302,-0.5292,-0.529,-0.5289,-0.5289,-0.5305,-0.5305,-0.5312,-0.5312,-0.5312]},{"header":{"parameterUnit":"m.s-1","parameterCategory":1,"la1":30.2991,"la2":30.254,"lo1":-89.0895,"lo2":-89.0444,"dy":0.0017,"dx":0.0017,"nx":28,"ny":28,"refTime":"2024-07-18T21:00:00:Z","depth":0,"parameterNumber":3,"parameterNumberName":"V-component_of_WINDS"},"data":[0,0,0,0,0,0,0,0,0,0,0,0,0,0,0,0,0,0,0,0,0,0,0,0,0,0,0,0,0,0,0,0,0,0,0,0,0,0,0,0,0,0,0,0,0,0,0,0,0,0,0,0,0,0,0,0,0,0,-1.6139,-1.614,0,-1.617,-1.6171,-1.6171,-1.6172,-1.6172,-1.6172,-1.6171,-1.62,-1.6201,-1.6202,0,0,0,0,0,0,0,0,0,0,0,0,0,-1.6078,-1.6079,-1.6139,-1.614,-1.614,-1.617,-1.6171,-1.6171,-1.6172,-1.6172,-1.6171,-1.6171,-1.62,-1.6201,-1.6203,0,0,0,0,0,0,0,0,0,0,0,0,0,-1.6106,-1.6079,-1.6139,-1.6144,-1.6145,-1.617,-1.6171,-1.6171,-1.6172,-1.6172,-1.6171,-1.6171,-1.62,-1.6201,-1.6203,-1.6224,0,0,-1.6208,-1.6209,0,0,0,0,0,0,0,0,-1.6104,-1.6108,-1.6143,-1.6144,-1.6145,-1.6167,-1.616,-1.6189,-1.6173,-1.6162,-1.6171,-1.6171,-1.6189,-1.6192,-1.6199,-1.6225,-1.6226,-1.6208,-1.6209,-1.621,-1.621,0,0,0,0,0,0,0,-1.6102,-1.6107,-1.6151,-1.6144,-1.6145,-1.6144,-1.6147,-1.6165,-1.6178,-1.6163,-1.6163,-1.6167,-1.619,-1.6197,-1.62,-1.6227,-1.6208,-1.6209,-1.621,-1.6211,-1.627,-1.6271,0,0,0,0,0,0,-1.61,-1.6105,-1.615,-1.6152,-1.6123,-1.6146,-1.6149,-1.616,-1.6178,-1.618,-1.6167,-1.6167,-1.6195,-1.6198,-1.6201,-1.6225,-1.621,-1.6211,-1.6212,-1.627,-1.627,-1.6271,0,0,0,0,0,0,-1.6099,-1.6104,-1.6149,-1.6129,-1.6135,-1.6147,-1.616,-1.6161,-1.6169,-1.6182,-1.6184,-1.6173,-1.6194,-1.6198,-1.6218,-1.6226,-1.6212,-1.6214,-1.6269,-1.627,-1.6271,-1.6275,0,0,0,0,0,0,-1.6097,-1.6103,-1.6113,-1.6129,-1.6136,-1.6167,-1.616,-1.6162,-1.6172,-1.6172,-1.6187,-1.6189,-1.6194,-1.6215,-1.6219,-1.6228,-1.6215,-1.6268,-1.6269,-1.627,-1.6275,-1.6276,-1.6278,0,0,0,0,0,-1.6095,-1.6112,-1.6113,-1.6118,-1.6147,-1.6168,-1.6171,-1.6178,-1.6173,-1.6181,-1.6189,-1.6189,-1.6225,-1.6217,-1.6222,-1.6231,-1.6268,-1.6269,-1.627,-1.6274,-1.6276,-1.6278,0,0,0,0,0,0,-1.6096,-1.6115,-1.6116,-1.614,-1.6152,-1.6168,-1.6179,-1.618,-1.6193,-1.6192,-1.6199,-1.6202,-1.6221,-1.6228,-1.622,-1.6252,-1.6246,-1.6248,-1.6247,-1.6249,-1.625,-1.6248,-1.6216,0,0,0,0,0,-1.6099,-1.6115,-1.613,-1.6149,-1.6156,-1.6166,-1.6175,-1.6179,-1.6192,-1.6197,-1.6206,-1.6218,-1.6232,-1.6241,-1.6254,-1.6276,-1.6278,-1.6284,-1.6286,-1.6287,-1.6289,-1.6299,-1.6302,-1.6275,-1.6275,-1.6275,0,0,-1.6105,-1.6118,-1.6127,-1.615,-1.616,-1.6175,-1.6171,-1.6187,-1.6198,-1.6199,-1.6218,-1.6225,-1.6239,-1.6259,-1.6268,-1.6265,-1.6297,-1.6289,-1.629,-1.6291,-1.6301,-1.6303,-1.6305,-1.6276,-1.6276,-1.6276,0,0,-1.6124,-1.6136,-1.6153,-1.6163,-1.6179,-1.6185,-1.6189,-1.6205,-1.621,-1.6229,-1.623,-1.6242,-1.6267,-1.6276,-1.6283,-1.6305,-1.6304,-1.6309,-1.6317,-1.6327,-1.6329,-1.6331,-1.6337,-1.634,-1.6311,-1.6311,-1.6311,0,-1.613,-1.6154,-1.6161,-1.6177,-1.6187,-1.6189,-1.6205,-1.6215,-1.6233,-1.6239,-1.6236,-1.6266,-1.6275,-1.6296,-1.6302,-1.6308,-1.6312,-1.6307,-1.6329,-1.6331,-1.6332,-1.6338,-1.6341,-1.6311,-1.6311,-1.6311,-1.6311,0,-1.6159,-1.6175,-1.6187,-1.6205,-1.6216,-1.6232,-1.6241,-1.6251,-1.6253,-1.626,-1.6278,-1.629,-1.6305,-1.631,-1.6313,-1.6332,-1.633,-1.6328,-1.6321,-1.6335,-1.6341,-1.6343,-1.6312,-1.6312,-1.6311,-1.6311,0,0,-1.618,-1.6202,-1.6206,-1.6214,-1.6231,-1.6243,-1.6258,-1.6274,-1.6281,-1.6294,-1.6306,-1.6326,-1.6324,-1.6333,-1.6336,-1.6345,-1.636,-1.6342,-1.6342,-1.6344,-1.638,-1.638,-1.6383,-1.636,-1.636,-1.6361,-1.6378,0,-1.62,-1.6228,-1.6235,-1.6259,-1.6273,-1.6275,-1.6289,-1.63,-1.6306,-1.6318,-1.6325,-1.6338,-1.6335,-1.634,-1.6349,-1.6356,-1.6367,-1.6355,-1.637,-1.637,-1.6366,-1.6386,-1.6388,-1.6404,-1.6381,-1.6381,-1.6381,0,-1.6227,-1.6241,-1.6266,-1.628,-1.6286,-1.6298,-1.6312,-1.6324,-1.6336,-1.634,-1.635,-1.6352,-1.6367,-1.636,-1.638,-1.6372,-1.6378,-1.6382,-1.6383,-1.6384,-1.6376,-1.6387,-1.6409,-1.6411,-1.6385,-1.6385,-1.6385,0,-1.6238,-1.6262,-1.6281,-1.6288,-1.6305,-1.6313,-1.632,-1.6332,-1.634,-1.6352,-1.6358,-1.6371,-1.6378,-1.6388,-1.6393,-1.6388,-1.6412,-1.6406,-1.6414,-1.6414,-1.6418,-1.6418,-1.6441,-1.6424,-1.6424,-1.6424,-1.6424,0,-1.6259,-1.6274,-1.6286,-1.6297,-1.6313,-1.632,-1.6336,-1.6343,-1.6353,-1.6365,-1.6368,-1.6378,-1.6385,-1.6396,-1.64,-1.6415,-1.6419,-1.6421,-1.6422,-1.642,-1.642,-1.6424,-1.6423,-1.6425,-1.6425,-1.6424,-1.6424,0,-1.6273,-1.6282,-1.6302,-1.6316,-1.632,-1.6332,-1.6344,-1.6354,-1.636,-1.6374,-1.6378,-1.6388,-1.6401,-1.6407,-1.6424,-1.6426,-1.6443,-1.6443,-1.6439,-1.6439,-1.6446,-1.6445,-1.6472,-1.6475,-1.6457,-1.6457,-1.6458,0,-1.6286,-1.6297,-1.6313,-1.6322,-1.6329,-1.6343,-1.6351,-1.6358,-1.6367,-1.6381,-1.6389,-1.6402,-1.6414,-1.6434,-1.6442,-1.6454,-1.6454,-1.6463,-1.6456,-1.6453,-1.6453,-1.6452,-1.6452,-1.6463,-1.6464,-1.6464,-1.6464,0,-1.6306,-1.631,-1.6323,-1.6337,-1.6347,-1.6359,-1.637,-1.6376,-1.6385,-1.6394,-1.6408,-1.6417,-1.6433,-1.6446,-1.6458,-1.6465,-1.6465,-1.6466,-1.6468,-1.6467,-1.6463,-1.6464,-1.6441,-1.6465,-1.6465,-1.6465,-1.6465,-1.6465,-1.6319,-1.6329,-1.6342,-1.6356,-1.6365,-1.6375,-1.6385,-1.6393,-1.6405,-1.6419,-1.6422,-1.6436,-1.6447,-1.6464,-1.647,-1.6481,-1.6479,-1.6483,-1.6483,-1.6484,-1.6484,-1.6462,-1.6483,-1.6483,-1.6483,-1.6483,-1.6483,0,-1.6339,-1.6347,-1.636,-1.6375,-1.6386,-1.6387,-1.6399,-1.6407,-1.642,-1.643,-1.6441,-1.6456,-1.6468,-1.6477,-1.6489,-1.6496,-1.6496,-1.6498,-1.6497,-1.6499,-1.6485,-1.6482,-1.6498,-1.6498,-1.6498,-1.6498,-1.6498,-1.6498,-1.635,-1.6367,-1.6372,-1.6393,-1.64,-1.6415,-1.6421,-1.643,-1.6438,-1.6455,-1.6466,-1.6472,-1.6481,-1.6493,-1.6504,-1.6506,-1.651,-1.6512,-1.6514,-1.6501,-1.65,-1.6498,-1.6495,-1.6513,-1.6513,-1.6526,-1.6527,-1.6527]}]]